SIA323 EHAM-WSSS

Flight info

Callsign SIA323
Flight time N/A
Altitude 37000
Route EDUPO Z739 MISGO DCT DOJOH DCT DODEN DCT NEGIX DCT DINKU DCT BESNI DCT ALUTU DCT AKIMA DCT STEIN DCT TEGRI DCT LUGEB DCT UDROS UM859 OSDIP/N0476F390 UM859 KARDE UL851 TBN UR317 REBLO M11 LUSAL N199 BAKUV N701 LARGI B701 KRS A240 INRAK B449 DOLOS B475 RUBAD A846 RANAH L750 ZB G202 RK/N0485F410 P628 IBANI L510 GIVAL P628 VPL Y503 RINBA Y507 MAKNA Y511 TOPOR A464 ARAMA DCT TEBUN TEBUN1A
Aircraft A359/H-SDE1E2E3GHIJ1J2J3J5M1P2RWXYZ/LB1D1

Departure

Time 2026-04-27 06:42
Airport Amsterdam Airport Schiphol (EHAM)

Arrival

Time N/A
Airport Singapore Changi Airport (WSSS)
Time Latitude Longitude Altitude Speed Heading
2026-04-27 05:50 52.31234 4.75816 5 ft 0 kts 266°
2026-04-27 06:23 52.31234 4.75812 5 ft 1 kts 266°
2026-04-27 06:23 52.31234 4.75798 5 ft 0 kts 266°
2026-04-27 06:23 52.31235 4.75832 5 ft 4 kts 265°
2026-04-27 06:24 52.31237 4.75876 5 ft 4 kts 270°
2026-04-27 06:24 52.31235 4.75916 6 ft 4 kts 292°
2026-04-27 06:24 52.31230 4.75937 8 ft 4 kts 342°
2026-04-27 06:24 52.31231 4.75939 9 ft 4 kts 357°
2026-04-27 06:25 52.31258 4.75937 6 ft 4 kts 357°
2026-04-27 06:25 52.31283 4.75935 5 ft 2 kts 356°
2026-04-27 06:25 52.31297 4.75933 5 ft 2 kts 356°
2026-04-27 06:25 52.31317 4.75932 5 ft 5 kts 356°
2026-04-27 06:26 52.31336 4.75930 5 ft 0 kts 356°
2026-04-27 06:31 52.31379 4.75926 5 ft 11 kts 357°
2026-04-27 06:31 52.31476 4.75919 5 ft 15 kts 357°
2026-04-27 06:32 52.31519 4.75879 5 ft 6 kts 288°
2026-04-27 06:32 52.31522 4.75769 5 ft 12 kts 268°
2026-04-27 06:32 52.31517 4.75627 5 ft 13 kts 266°
2026-04-27 06:32 52.31512 4.75469 5 ft 14 kts 268°
2026-04-27 06:33 52.31507 4.75297 5 ft 16 kts 267°
2026-04-27 06:33 52.31500 4.75108 5 ft 17 kts 266°
2026-04-27 06:33 52.31493 4.74903 5 ft 19 kts 266°
2026-04-27 06:33 52.31485 4.74685 5 ft 20 kts 266°
2026-04-27 06:34 52.31478 4.74457 5 ft 21 kts 267°
2026-04-27 06:34 52.31490 4.74308 5 ft 7 kts 321°
2026-04-27 06:34 52.31539 4.74300 5 ft 11 kts
2026-04-27 06:34 52.31644 4.74306 5 ft 19 kts
2026-04-27 06:35 52.31786 4.74320 5 ft 21 kts
2026-04-27 06:35 52.31936 4.74333 5 ft 21 kts
2026-04-27 06:35 52.32021 4.74306 5 ft 6 kts 292°
2026-04-27 06:35 52.32029 4.74191 5 ft 17 kts 276°
2026-04-27 06:36 52.32040 4.73928 4 ft 28 kts 274°
2026-04-27 06:36 52.32051 4.73630 5 ft 25 kts 274°
2026-04-27 06:36 52.32090 4.73362 5 ft 24 kts 309°
2026-04-27 06:36 52.32216 4.73176 5 ft 24 kts 320°
2026-04-27 06:37 52.32346 4.72992 5 ft 25 kts 319°
2026-04-27 06:37 52.32479 4.72807 5 ft 26 kts 319°
2026-04-27 06:37 52.32603 4.72633 5 ft 24 kts 320°
2026-04-27 06:37 52.32722 4.72445 5 ft 24 kts 311°
2026-04-27 06:38 52.32831 4.72237 5 ft 24 kts 311°
2026-04-27 06:38 52.32945 4.72025 5 ft 25 kts 311°
2026-04-27 06:38 52.33062 4.71811 5 ft 26 kts 312°
2026-04-27 06:38 52.33147 4.71634 5 ft 15 kts 290°
2026-04-27 06:39 52.33119 4.71484 5 ft 14 kts 225°
2026-04-27 06:39 52.33042 4.71374 5 ft 15 kts 222°
2026-04-27 06:39 52.32962 4.71259 5 ft 16 kts 220°
2026-04-27 06:39 52.32883 4.71135 5 ft 14 kts 234°
2026-04-27 06:40 52.32863 4.70986 4 ft 14 kts 272°
2026-04-27 06:40 52.32892 4.70902 4 ft 7 kts 345°
2026-04-27 06:40 52.32918 4.70903 4 ft 0 kts
2026-04-27 06:41 52.32919 4.70903 4 ft 1 kts
2026-04-27 06:41 52.33041 4.70911 3 ft 47 kts
2026-04-27 06:41 52.33586 4.70959 6 ft 108 kts
2026-04-27 06:41 52.34522 4.71041 7 ft 159 kts
2026-04-27 06:42 52.35689 4.71129 420 ft 170 kts
2026-04-27 06:42 52.36870 4.71254 1124 ft 171 kts
2026-04-27 06:42 52.38067 4.71410 1675 ft 175 kts
2026-04-27 06:42 52.39307 4.71593 2128 ft 182 kts
2026-04-27 06:43 52.40593 4.71808 2538 ft 191 kts
2026-04-27 06:43 52.41991 4.72059 2794 ft 213 kts
2026-04-27 06:43 52.43464 4.72648 3208 ft 224 kts 22°
2026-04-27 06:43 52.44860 4.73934 3541 ft 240 kts 31°
2026-04-27 06:44 52.46316 4.75439 3944 ft 254 kts 32°
2026-04-27 06:44 52.47668 4.77331 4536 ft 258 kts 52°
2026-04-27 06:44 52.48292 4.80074 5191 ft 261 kts 84°
2026-04-27 06:44 52.48370 4.83017 5864 ft 261 kts 86°
2026-04-27 06:45 52.48506 4.86055 6450 ft 267 kts 84°
2026-04-27 06:45 52.48636 4.89100 6902 ft 275 kts 90°
2026-04-27 06:45 52.48213 4.92166 7443 ft 278 kts 116°
2026-04-27 06:45 52.47022 4.94672 8012 ft 282 kts 137°
2026-04-27 06:46 52.45488 4.96751 8539 ft 288 kts 144°
2026-04-27 06:46 52.43830 4.98575 9084 ft 292 kts 147°
2026-04-27 06:46 52.42083 5.00291 9735 ft 293 kts 151°
2026-04-27 06:46 52.40307 5.01951 10387 ft 294 kts 150°
2026-04-27 06:47 52.38525 5.03712 10723 ft 306 kts 149°
2026-04-27 06:47 52.36688 5.05647 10965 ft 321 kts 147°
2026-04-27 06:47 52.34783 5.07748 11203 ft 335 kts 146°
2026-04-27 06:47 52.32938 5.10207 11445 ft 349 kts 136°
2026-04-27 06:48 52.31236 5.13155 11683 ft 362 kts 132°
2026-04-27 06:48 52.29536 5.16274 11966 ft 372 kts 132°
2026-04-27 06:48 52.27800 5.19467 12377 ft 378 kts 132°
2026-04-27 06:48 52.26038 5.22693 12814 ft 383 kts 132°
2026-04-27 06:49 52.24300 5.26000 13285 ft 386 kts 129°
2026-04-27 06:49 52.22695 5.29549 13744 ft 390 kts 126°
2026-04-27 06:49 52.21128 5.33177 14227 ft 393 kts 126°
2026-04-27 06:49 52.19548 5.36844 14629 ft 396 kts 126°
2026-04-27 06:50 52.17966 5.40499 15040 ft 400 kts 126°
2026-04-27 06:50 52.16358 5.44201 15461 ft 403 kts 126°
2026-04-27 06:50 52.14729 5.47940 15881 ft 406 kts 126°
2026-04-27 06:50 52.13089 5.51698 16312 ft 409 kts 126°
2026-04-27 06:51 52.11435 5.55481 16720 ft 412 kts 126°
2026-04-27 06:51 52.09765 5.59304 17136 ft 415 kts 126°
2026-04-27 06:51 52.08081 5.63144 17536 ft 418 kts 126°
2026-04-27 06:51 52.06367 5.66988 17952 ft 421 kts 129°
2026-04-27 06:52 52.04503 5.70669 18347 ft 423 kts 132°
2026-04-27 06:52 52.02567 5.74290 18721 ft 426 kts 133°
2026-04-27 06:52 52.00613 5.77914 19065 ft 428 kts 133°
2026-04-27 06:52 51.98644 5.81565 19408 ft 430 kts 133°
2026-04-27 06:53 51.96670 5.85229 19760 ft 432 kts 133°
2026-04-27 06:53 51.94690 5.88915 20108 ft 434 kts 133°
2026-04-27 06:53 51.92703 5.92615 20430 ft 437 kts 133°
2026-04-27 06:53 51.90708 5.96332 20776 ft 439 kts 133°
2026-04-27 06:54 51.88699 6.00070 21093 ft 441 kts 133°
2026-04-27 06:54 51.86680 6.03820 21425 ft 443 kts 133°
2026-04-27 06:54 51.84651 6.07589 21735 ft 445 kts 133°
2026-04-27 06:54 51.82610 6.11365 22060 ft 447 kts 133°
2026-04-27 06:55 51.80549 6.15146 22374 ft 449 kts 133°
2026-04-27 06:55 51.78475 6.18937 22682 ft 452 kts 133°
2026-04-27 06:55 51.76388 6.22747 22992 ft 454 kts 133°
2026-04-27 06:55 51.74289 6.26579 23281 ft 456 kts 133°
2026-04-27 06:56 51.72179 6.30420 23595 ft 458 kts 133°
2026-04-27 06:56 51.70032 6.34324 23886 ft 461 kts 133°
2026-04-27 06:56 51.67927 6.38147 24121 ft 463 kts 133°
2026-04-27 06:56 51.65753 6.42092 24368 ft 465 kts 133°
2026-04-27 06:57 51.63599 6.45996 24620 ft 467 kts 133°
2026-04-27 06:57 51.61435 6.49916 24897 ft 469 kts 134°
2026-04-27 06:57 51.59263 6.53844 25158 ft 471 kts 134°
2026-04-27 06:57 51.57082 6.57781 25401 ft 473 kts 134°
2026-04-27 06:58 51.54888 6.61733 25649 ft 475 kts 134°
2026-04-27 06:58 51.50465 6.69679 26176 ft 479 kts 134°
2026-04-27 06:58 51.48239 6.73672 26434 ft 481 kts 134°
2026-04-27 06:59 51.46008 6.77668 26697 ft 482 kts 134°
2026-04-27 06:59 51.43761 6.81686 26961 ft 484 kts 134°
2026-04-27 06:59 51.41509 6.85706 27231 ft 487 kts 134°
2026-04-27 06:59 51.39235 6.89738 27487 ft 488 kts 135°
2026-04-27 07:00 51.36859 6.93639 27762 ft 489 kts 137°
2026-04-27 07:00 51.34404 6.97418 28042 ft 491 kts 139°
2026-04-27 07:00 51.31909 7.01162 28325 ft 493 kts 139°
2026-04-27 07:00 51.29410 7.04905 28599 ft 495 kts 139°
2026-04-27 07:01 51.26897 7.08694 28869 ft 497 kts 139°
2026-04-27 07:01 51.24386 7.12512 29144 ft 499 kts 139°
2026-04-27 07:01 51.21872 7.16358 29410 ft 501 kts 138°
2026-04-27 07:01 51.19353 7.20228 29676 ft 504 kts 138°
2026-04-27 07:02 51.16830 7.24107 29961 ft 506 kts 138°
2026-04-27 07:02 51.14291 7.28007 30256 ft 508 kts 138°
2026-04-27 07:02 51.11744 7.31914 30481 ft 510 kts 138°
2026-04-27 07:02 51.10018 7.34558 30626 ft 512 kts 138°
2026-04-27 07:03 51.06608 7.39769 30915 ft 514 kts 138°
2026-04-27 07:03 51.04023 7.43711 31142 ft 516 kts 138°
2026-04-27 07:03 51.02269 7.46381 31300 ft 517 kts 138°
2026-04-27 07:03 50.99673 7.50328 31568 ft 518 kts 138°
2026-04-27 07:04 50.97193 7.54094 31871 ft 517 kts 138°
2026-04-27 07:04 50.94594 7.58035 32170 ft 517 kts 138°
2026-04-27 07:04 50.91997 7.61963 32469 ft 517 kts 138°
2026-04-27 07:04 50.89399 7.65885 32760 ft 516 kts 138°
2026-04-27 07:05 50.86795 7.69812 33049 ft 516 kts 138°
2026-04-27 07:05 50.84194 7.73727 33337 ft 516 kts 138°
2026-04-27 07:05 50.81588 7.77644 33630 ft 516 kts 138°
2026-04-27 07:05 50.78982 7.81535 33935 ft 515 kts 138°
2026-04-27 07:06 50.76375 7.85414 34232 ft 515 kts 138°
2026-04-27 07:06 50.73763 7.89290 34507 ft 515 kts 138°
2026-04-27 07:06 50.71159 7.93150 34783 ft 514 kts 138°
2026-04-27 07:06 50.68553 7.97007 35049 ft 513 kts 138°
2026-04-27 07:07 50.65953 8.00853 35310 ft 513 kts 138°
2026-04-27 07:07 50.63349 8.04698 35554 ft 512 kts 139°
2026-04-27 07:07 50.60792 8.08597 35788 ft 513 kts 134°
2026-04-27 07:07 50.58445 8.12831 36032 ft 513 kts 131°
2026-04-27 07:08 50.56169 8.17169 36256 ft 513 kts 130°
2026-04-27 07:08 50.53936 8.21536 36467 ft 514 kts 129°
2026-04-27 07:08 50.51711 8.25934 36659 ft 514 kts 129°
2026-04-27 07:08 50.49492 8.30331 36863 ft 514 kts 129°
2026-04-27 07:09 50.47264 8.34733 37088 ft 513 kts 129°
2026-04-27 07:09 50.45038 8.39107 37244 ft 515 kts 130°
2026-04-27 07:09 50.42788 8.43510 37282 ft 518 kts 130°
2026-04-27 07:10 50.38258 8.52327 37277 ft 519 kts 130°
2026-04-27 07:10 50.33546 8.60888 37279 ft 518 kts 134°
2026-04-27 07:11 50.28520 8.69069 37268 ft 518 kts 135°
2026-04-27 07:11 50.23514 8.77175 37281 ft 518 kts 135°
2026-04-27 07:12 50.18555 8.85339 37262 ft 518 kts 134°
2026-04-27 07:12 50.13614 8.93529 37272 ft 518 kts 134°
2026-04-27 07:13 50.08679 9.01695 37265 ft 518 kts 134°
2026-04-27 07:13 50.03731 9.09850 37256 ft 518 kts 134°
2026-04-27 07:14 49.98773 9.17991 37248 ft 518 kts 134°
2026-04-27 07:14 49.93812 9.26109 37247 ft 518 kts 134°
2026-04-27 07:15 49.88851 9.34201 37243 ft 518 kts 134°
2026-04-27 07:15 49.83881 9.42283 37238 ft 518 kts 134°
2026-04-27 07:16 49.78903 9.50351 37239 ft 518 kts 134°
2026-04-27 07:16 49.73921 9.58401 37241 ft 518 kts 134°
2026-04-27 07:17 49.68937 9.66428 37239 ft 518 kts 134°
2026-04-27 07:17 49.63940 9.74451 37237 ft 518 kts 134°
2026-04-27 07:18 49.58947 9.82442 37239 ft 518 kts 134°
2026-04-27 07:18 49.53912 9.90475 37237 ft 518 kts 134°
2026-04-27 07:19 49.48899 9.98446 37236 ft 518 kts 134°
2026-04-27 07:19 49.43888 10.06391 37238 ft 518 kts 134°
2026-04-27 07:20 49.38872 10.14318 37239 ft 517 kts 134°
2026-04-27 07:20 49.33851 10.22229 37239 ft 517 kts 134°
2026-04-27 07:21 49.28828 10.30118 37248 ft 517 kts 134°
2026-04-27 07:21 49.23800 10.37992 37260 ft 517 kts 134°
2026-04-27 07:22 49.18718 10.45750 37264 ft 516 kts 136°
2026-04-27 07:22 49.13539 10.53364 37272 ft 516 kts 136°
2026-04-27 07:23 49.08363 10.60950 37267 ft 516 kts 136°
2026-04-27 07:23 49.03209 10.68534 37264 ft 515 kts 136°
2026-04-27 07:24 48.98053 10.76121 37255 ft 515 kts 136°
2026-04-27 07:24 48.92904 10.83678 37252 ft 515 kts 136°
2026-04-27 07:25 48.87707 10.91282 37240 ft 514 kts 136°
2026-04-27 07:25 48.82552 10.98800 37236 ft 514 kts 136°
2026-04-27 07:26 48.77394 11.06297 37236 ft 514 kts 136°
2026-04-27 07:26 48.72228 11.13787 37237 ft 513 kts 136°
2026-04-27 07:27 48.67622 11.20681 37236 ft 513 kts 130°
2026-04-27 07:27 48.63803 11.29705 37238 ft 510 kts 111°
2026-04-27 07:28 48.61687 11.39899 37237 ft 508 kts 103°
2026-04-27 07:28 48.59969 11.50250 37237 ft 508 kts 102°
2026-04-27 07:29 48.58272 11.60609 37234 ft 508 kts 102°
2026-04-27 07:29 48.56517 11.70937 37233 ft 508 kts 102°
2026-04-27 07:30 48.54721 11.81258 37236 ft 508 kts 103°
2026-04-27 07:30 48.52912 11.91557 37236 ft 508 kts 103°
2026-04-27 07:31 48.51094 12.01856 37238 ft 508 kts 103°
2026-04-27 07:31 48.49551 12.12225 37244 ft 505 kts 95°
2026-04-27 07:32 48.48749 12.22736 37243 ft 505 kts 93°
2026-04-27 07:32 48.48083 12.33334 37251 ft 504 kts 92°
2026-04-27 07:33 48.47425 12.43797 37249 ft 505 kts 92°
2026-04-27 07:33 48.46730 12.54383 37243 ft 505 kts 93°
2026-04-27 07:34 48.46018 12.64911 37256 ft 505 kts 93°
2026-04-27 07:34 48.45294 12.75430 37244 ft 505 kts 93°
2026-04-27 07:35 48.44560 12.85962 37248 ft 505 kts 93°
2026-04-27 07:35 48.43819 12.96481 37258 ft 505 kts 93°
2026-04-27 07:36 48.43195 13.05229 37255 ft 506 kts 93°
2026-04-27 07:36 48.42436 13.15752 37251 ft 506 kts 93°
2026-04-27 07:37 48.41651 13.26275 37254 ft 507 kts 95°
2026-04-27 07:37 48.39840 13.36291 37253 ft 511 kts 108°
2026-04-27 07:38 48.37162 13.46211 37255 ft 512 kts 111°
2026-04-27 07:38 48.34326 13.56057 37253 ft 513 kts 111°
2026-04-27 07:39 48.31494 13.65887 37251 ft 513 kts 111°
2026-04-27 07:39 48.28680 13.75728 37254 ft 513 kts 111°
2026-04-27 07:40 48.25847 13.85649 37258 ft 513 kts 111°
2026-04-27 07:40 48.23029 13.95481 37263 ft 513 kts 111°
2026-04-27 07:41 48.20199 14.05309 37266 ft 513 kts 111°
2026-04-27 07:41 48.17359 14.15126 37266 ft 513 kts 111°
2026-04-27 07:42 48.14511 14.24930 37267 ft 513 kts 111°
2026-04-27 07:42 48.11655 14.34726 37259 ft 513 kts 111°
2026-04-27 07:43 48.08790 14.44512 37259 ft 513 kts 111°
2026-04-27 07:43 48.05918 14.54285 37253 ft 513 kts 111°
2026-04-27 07:44 48.03306 14.63139 37246 ft 513 kts 111°